AUA31S EHAM-LOWW

Flight info

Callsign AUA31S
Flight time 1h 13m
Altitude 37000
Route EDUPO Z739 MISGO DCT BADGO DCT SWALM DCT GASKA DCT ENITA DCT ETVIS DCT BUDWA DCT BUDEX BUDEX2W
Aircraft A320/M-SDE3FGHIRWY/LB1

Departure

Time 2026-04-17 11:58
Airport Amsterdam Airport Schiphol (EHAM)

Arrival

Time 2026-04-17 13:12
Airport Vienna International Airport (LOWW)
Time Latitude Longitude Altitude Speed Heading
2026-04-17 11:21 52.30478 4.76288 -2 ft 0 kts 239°
2026-04-17 11:50 52.30479 4.76291 -3 ft 2 kts 238°
2026-04-17 11:50 52.30488 4.76313 -2 ft 2 kts 230°
2026-04-17 11:50 52.30500 4.76333 -3 ft 2 kts 213°
2026-04-17 11:50 52.30515 4.76344 -3 ft 2 kts 177°
2026-04-17 11:51 52.30531 4.76338 -3 ft 2 kts 151°
2026-04-17 11:51 52.30537 4.76332 -3 ft 0 kts 148°
2026-04-17 11:54 52.30534 4.76336 -3 ft 2 kts 147°
2026-04-17 11:54 52.30522 4.76374 -3 ft 6 kts 107°
2026-04-17 11:55 52.30490 4.76456 -3 ft 11 kts 141°
2026-04-17 11:55 52.30416 4.76531 -3 ft 11 kts 148°
2026-04-17 11:55 52.30352 4.76621 -3 ft 13 kts 105°
2026-04-17 11:55 52.30313 4.76755 -6 ft 13 kts 129°
2026-04-17 11:56 52.30336 4.76884 -5 ft 12 kts 58°
2026-04-17 11:56 52.30381 4.77000 -7 ft 12 kts 58°
2026-04-17 11:56 52.30425 4.77115 -7 ft 11 kts 58°
2026-04-17 11:56 52.30459 4.77206 -6 ft 9 kts 58°
2026-04-17 11:57 52.30502 4.77315 -6 ft 14 kts 57°
2026-04-17 11:57 52.30559 4.77465 -3 ft 13 kts 58°
2026-04-17 11:57 52.30522 4.77588 -3 ft 15 kts 152°
2026-04-17 11:57 52.30427 4.77641 -1 ft 14 kts 196°
2026-04-17 11:58 52.30346 4.77458 -3 ft 39 kts 237°
2026-04-17 11:58 52.30071 4.76738 -3 ft 106 kts 237°
2026-04-17 11:58 52.29580 4.75456 16 ft 156 kts 238°
2026-04-17 11:58 52.29017 4.73976 665 ft 151 kts 236°
2026-04-17 11:59 52.28459 4.72526 1348 ft 153 kts 237°
2026-04-17 11:59 52.27855 4.70969 1725 ft 172 kts 235°
2026-04-17 11:59 52.27161 4.69251 2028 ft 194 kts 229°
2026-04-17 11:59 52.26017 4.68017 2515 ft 203 kts 195°
2026-04-17 12:00 52.24589 4.67999 3190 ft 211 kts 164°
2026-04-17 12:00 52.23355 4.69287 3965 ft 218 kts 132°
2026-04-17 12:00 52.22524 4.71461 4585 ft 231 kts 122°
2026-04-17 12:00 52.21746 4.73784 5377 ft 234 kts 121°
2026-04-17 12:01 52.20969 4.76129 6170 ft 237 kts 121°
2026-04-17 12:01 52.20155 4.78532 6717 ft 252 kts 122°
2026-04-17 12:01 52.19245 4.81109 7142 ft 270 kts 122°
2026-04-17 12:01 52.18305 4.83801 7831 ft 278 kts 118°
2026-04-17 12:02 52.17691 4.86836 8548 ft 286 kts 107°
2026-04-17 12:02 52.17055 4.89881 9281 ft 289 kts 117°
2026-04-17 12:02 52.16155 4.92880 10042 ft 293 kts 122°
2026-04-17 12:02 52.15171 4.95793 10564 ft 305 kts 123°
2026-04-17 12:03 52.14090 4.98920 10750 ft 328 kts 122°
2026-04-17 12:03 52.12961 5.02266 11169 ft 342 kts 121°
2026-04-17 12:03 52.11841 5.05712 11826 ft 347 kts 121°
2026-04-17 12:03 52.10730 5.09232 12521 ft 352 kts 120°
2026-04-17 12:04 52.09620 5.12805 13199 ft 356 kts 120°
2026-04-17 12:04 52.08506 5.16408 13870 ft 360 kts 120°
2026-04-17 12:04 52.07372 5.20070 14494 ft 364 kts 120°
2026-04-17 12:04 52.06223 5.23766 15056 ft 368 kts 120°
2026-04-17 12:05 52.05060 5.27496 15632 ft 372 kts 120°
2026-04-17 12:05 52.03881 5.31266 16210 ft 376 kts 120°
2026-04-17 12:05 52.02698 5.35030 16769 ft 380 kts 120°
2026-04-17 12:05 52.01481 5.38889 17346 ft 384 kts 120°
2026-04-17 12:06 52.00256 5.42780 17912 ft 388 kts 120°
2026-04-17 12:06 51.99021 5.46700 18473 ft 392 kts 120°
2026-04-17 12:06 51.97776 5.50652 18965 ft 395 kts 120°
2026-04-17 12:06 51.96520 5.54634 19465 ft 398 kts 120°
2026-04-17 12:07 51.95246 5.58659 19977 ft 401 kts 120°
2026-04-17 12:07 51.93977 5.62655 20475 ft 405 kts 120°
2026-04-17 12:07 51.92682 5.66723 20976 ft 408 kts 120°
2026-04-17 12:07 51.91377 5.70821 21486 ft 411 kts 120°
2026-04-17 12:08 51.90060 5.74955 21993 ft 414 kts 120°
2026-04-17 12:08 51.88724 5.79139 22512 ft 417 kts 120°
2026-04-17 12:08 51.87379 5.83338 22983 ft 421 kts 120°
2026-04-17 12:08 51.86040 5.87513 23453 ft 424 kts 120°
2026-04-17 12:09 51.84675 5.91763 23889 ft 427 kts 120°
2026-04-17 12:09 51.83299 5.96037 24263 ft 430 kts 120°
2026-04-17 12:09 51.81912 6.00337 24636 ft 433 kts 120°
2026-04-17 12:09 51.80516 6.04669 24999 ft 435 kts 119°
2026-04-17 12:10 51.79120 6.08997 25343 ft 438 kts 119°
2026-04-17 12:10 51.77701 6.13382 25688 ft 441 kts 119°
2026-04-17 12:10 51.76270 6.17790 26025 ft 443 kts 119°
2026-04-17 12:10 51.74827 6.22222 26357 ft 446 kts 119°
2026-04-17 12:11 51.73388 6.26639 26682 ft 449 kts 119°
2026-04-17 12:11 51.71928 6.31111 27008 ft 451 kts 119°
2026-04-17 12:11 51.70460 6.35604 27330 ft 454 kts 119°
2026-04-17 12:12 51.67503 6.44632 27953 ft 459 kts 119°
2026-04-17 12:12 51.66014 6.49157 28256 ft 461 kts 119°
2026-04-17 12:12 51.64502 6.53746 28559 ft 464 kts 119°
2026-04-17 12:12 51.62976 6.58368 28856 ft 466 kts 119°
2026-04-17 12:13 51.61466 6.62936 29139 ft 468 kts 119°
2026-04-17 12:13 51.59931 6.67570 29415 ft 471 kts 119°
2026-04-17 12:13 51.58405 6.72174 29857 ft 467 kts 119°
2026-04-17 12:13 51.57041 6.76279 30505 ft 461 kts 119°
2026-04-17 12:14 51.55524 6.80836 30891 ft 460 kts 119°
2026-04-17 12:14 51.54025 6.85327 31198 ft 461 kts 119°
2026-04-17 12:14 51.52502 6.89886 31540 ft 460 kts 119°
2026-04-17 12:14 51.51003 6.94366 31883 ft 460 kts 118°
2026-04-17 12:15 51.49483 6.98907 32225 ft 460 kts 118°
2026-04-17 12:15 51.47963 7.03434 32575 ft 459 kts 118°
2026-04-17 12:15 51.46447 7.07934 32924 ft 459 kts 118°
2026-04-17 12:15 51.44927 7.12435 33268 ft 459 kts 118°
2026-04-17 12:16 51.43406 7.16930 33608 ft 458 kts 118°
2026-04-17 12:16 51.41884 7.21432 33930 ft 458 kts 118°
2026-04-17 12:16 51.40378 7.25873 34237 ft 458 kts 118°
2026-04-17 12:16 51.38857 7.30354 34502 ft 458 kts 118°
2026-04-17 12:17 51.37334 7.34839 34679 ft 460 kts 118°
2026-04-17 12:17 51.35793 7.39364 34802 ft 463 kts 118°
2026-04-17 12:17 51.34242 7.43917 34936 ft 466 kts 118°
2026-04-17 12:17 51.32706 7.48419 35132 ft 467 kts 118°
2026-04-17 12:18 51.31141 7.52990 35359 ft 467 kts 118°
2026-04-17 12:18 51.29573 7.57559 35586 ft 466 kts 118°
2026-04-17 12:18 51.28021 7.62065 35819 ft 466 kts 118°
2026-04-17 12:18 51.26453 7.66603 36042 ft 466 kts 118°
2026-04-17 12:19 51.24886 7.71137 36181 ft 468 kts 118°
2026-04-17 12:19 51.23311 7.75690 36302 ft 469 kts 118°
2026-04-17 12:19 51.21733 7.80251 36435 ft 471 kts 118°
2026-04-17 12:19 51.20148 7.84829 36569 ft 472 kts 118°
2026-04-17 12:20 51.18557 7.89408 36703 ft 473 kts 118°
2026-04-17 12:20 51.16954 7.94001 36829 ft 474 kts 118°
2026-04-17 12:20 51.15346 7.98600 36964 ft 474 kts 118°
2026-04-17 12:20 51.13757 8.03135 37105 ft 474 kts 118°
2026-04-17 12:21 51.12149 8.07729 37215 ft 476 kts 118°
2026-04-17 12:21 51.08912 8.16964 37225 ft 482 kts 118°
2026-04-17 12:22 51.05616 8.26326 37224 ft 483 kts 118°
2026-04-17 12:22 51.02346 8.35575 37224 ft 483 kts 119°
2026-04-17 12:23 50.99041 8.44876 37223 ft 484 kts 119°
2026-04-17 12:23 50.95717 8.54212 37232 ft 484 kts 119°
2026-04-17 12:24 50.92399 8.63496 37231 ft 484 kts 119°
2026-04-17 12:24 50.89071 8.72767 37235 ft 484 kts 119°
2026-04-17 12:25 50.85754 8.81965 37235 ft 484 kts 119°
2026-04-17 12:25 50.82408 8.91234 37234 ft 483 kts 119°
2026-04-17 12:26 50.79074 9.00412 37234 ft 483 kts 119°
2026-04-17 12:26 50.75716 9.09622 37230 ft 483 kts 119°
2026-04-17 12:27 50.72355 9.18813 37233 ft 483 kts 119°
2026-04-17 12:27 50.69085 9.28073 37229 ft 483 kts 117°
2026-04-17 12:28 50.65942 9.37645 37228 ft 483 kts 116°
2026-04-17 12:28 50.61320 9.51627 37229 ft 483 kts 117°
2026-04-17 12:29 50.53344 9.75100 37232 ft 483 kts 117°
2026-04-17 12:29 50.44579 10.00741 37236 ft 483 kts 117°
2026-04-17 12:30 50.41390 10.09989 37235 ft 483 kts 117°
2026-04-17 12:30 50.38181 10.19273 37236 ft 483 kts 117°
2026-04-17 12:31 50.34973 10.28532 37236 ft 483 kts 116°
2026-04-17 12:31 50.31790 10.39098 37235 ft 483 kts 111°
2026-04-17 12:32 50.26553 10.58416 37234 ft 483 kts 112°
2026-04-17 12:32 50.21012 10.77514 37236 ft 483 kts 112°
2026-04-17 12:33 50.15476 10.96608 37238 ft 483 kts 112°
2026-04-17 12:33 50.09920 11.15656 37233 ft 483 kts 112°
2026-04-17 12:34 50.05598 11.30325 37236 ft 483 kts 112°
2026-04-17 12:34 50.02796 11.39815 37242 ft 483 kts 112°
2026-04-17 12:35 49.99999 11.49242 37236 ft 483 kts 112°
2026-04-17 12:35 49.97174 11.58706 37234 ft 483 kts 112°
2026-04-17 12:37 49.71459 12.43335 37230 ft 484 kts 113°
2026-04-17 12:37 49.69404 12.53148 37229 ft 478 kts 98°
2026-04-17 12:38 49.68026 12.63234 37233 ft 479 kts 99°
2026-04-17 12:38 49.64545 12.82995 37230 ft 485 kts 114°
2026-04-17 12:39 49.57051 13.00393 37239 ft 487 kts 123°
2026-04-17 12:39 49.49371 13.17618 37241 ft 488 kts 123°
2026-04-17 12:40 49.42257 13.33391 37244 ft 489 kts 123°
2026-04-17 12:40 49.38369 13.41974 37243 ft 489 kts 123°
2026-04-17 12:41 49.34497 13.50517 37238 ft 489 kts 123°
2026-04-17 12:41 49.30597 13.59065 37239 ft 489 kts 123°
2026-04-17 12:42 49.26664 13.67583 37237 ft 490 kts 124°
2026-04-17 12:42 49.22647 13.76007 37238 ft 490 kts 125°
2026-04-17 12:43 49.18599 13.84400 37240 ft 490 kts 125°
2026-04-17 12:43 49.14561 13.92806 37241 ft 491 kts 124°
2026-04-17 12:44 49.10542 14.01192 37236 ft 491 kts 124°
2026-04-17 12:44 49.06496 14.09596 37245 ft 491 kts 125°
2026-04-17 12:45 49.02432 14.17975 37179 ft 492 kts 125°
2026-04-17 12:45 49.00399 14.22157 37046 ft 491 kts 125°
2026-04-17 12:45 48.98362 14.26339 36835 ft 492 kts 125°
2026-04-17 12:45 48.96323 14.30518 36589 ft 492 kts 125°
2026-04-17 12:46 48.94295 14.34675 36331 ft 493 kts 125°
2026-04-17 12:46 48.92231 14.38851 36078 ft 494 kts 126°
2026-04-17 12:46 48.90143 14.43002 35828 ft 495 kts 126°
2026-04-17 12:46 48.88036 14.47141 35583 ft 495 kts 126°
2026-04-17 12:47 48.85925 14.51277 35327 ft 496 kts 126°
2026-04-17 12:47 48.83812 14.55424 35005 ft 497 kts 126°
2026-04-17 12:47 48.81698 14.59582 34218 ft 500 kts 126°
2026-04-17 12:47 48.79565 14.63782 33196 ft 504 kts 126°
2026-04-17 12:48 48.77421 14.68004 32239 ft 505 kts 125°
2026-04-17 12:48 48.75271 14.72222 31276 ft 506 kts 125°
2026-04-17 12:48 48.73113 14.76455 30183 ft 510 kts 124°
2026-04-17 12:48 48.70943 14.80707 28990 ft 511 kts 125°
2026-04-17 12:49 48.68765 14.84963 27891 ft 509 kts 125°
2026-04-17 12:49 48.66598 14.89183 26564 ft 503 kts 126°
2026-04-17 12:49 48.64470 14.93306 25318 ft 492 kts 126°
2026-04-17 12:49 48.62387 14.97332 24449 ft 478 kts 126°
2026-04-17 12:50 48.60474 15.01371 23674 ft 468 kts 119°
2026-04-17 12:50 48.58975 15.05676 22855 ft 460 kts 111°
2026-04-17 12:50 48.57894 15.10112 22160 ft 453 kts 103°
2026-04-17 12:50 48.57099 15.14702 21465 ft 449 kts 101°
2026-04-17 12:51 48.56316 15.19291 20785 ft 457 kts 101°
2026-04-17 12:51 48.55512 15.23944 20136 ft 458 kts 102°
2026-04-17 12:51 48.54704 15.28574 19509 ft 455 kts 102°
2026-04-17 12:51 48.53896 15.33174 18851 ft 452 kts 102°
2026-04-17 12:52 48.53089 15.37741 18122 ft 449 kts 102°
2026-04-17 12:52 48.52305 15.42241 17405 ft 434 kts 100°
2026-04-17 12:52 48.51858 15.46661 17043 ft 422 kts 91°
2026-04-17 12:52 48.51635 15.51114 16832 ft 428 kts 91°
2026-04-17 12:53 48.51395 15.55594 16618 ft 429 kts 91°
2026-04-17 12:53 48.51137 15.60092 16413 ft 428 kts 92°
2026-04-17 12:53 48.50874 15.64503 16220 ft 427 kts 92°
2026-04-17 12:53 48.50606 15.68953 16016 ft 425 kts 92°
2026-04-17 12:54 48.50342 15.73393 15808 ft 424 kts 92°
2026-04-17 12:54 48.50081 15.77810 15565 ft 422 kts 92°
2026-04-17 12:54 48.49823 15.82204 15310 ft 420 kts 92°
2026-04-17 12:54 48.49564 15.86592 15071 ft 418 kts 92°
2026-04-17 12:55 48.49304 15.90949 14831 ft 416 kts 92°
2026-04-17 12:55 48.49046 15.95281 14589 ft 413 kts 92°
2026-04-17 12:55 48.48784 15.99588 14350 ft 412 kts 92°
2026-04-17 12:55 48.48519 16.03875 14109 ft 410 kts 92°
2026-04-17 12:56 48.48256 16.08145 13854 ft 408 kts 92°
2026-04-17 12:56 48.48009 16.12401 13578 ft 406 kts 92°
2026-04-17 12:56 48.47820 16.16635 13245 ft 404 kts 91°
2026-04-17 12:56 48.47671 16.20811 12931 ft 402 kts 90°
2026-04-17 12:57 48.47532 16.25038 12614 ft 400 kts 90°
2026-04-17 12:57 48.47394 16.29190 12318 ft 399 kts 91°
2026-04-17 12:57 48.47245 16.33352 11994 ft 397 kts 91°
2026-04-17 12:57 48.47087 16.37452 11685 ft 386 kts 91°
2026-04-17 12:58 48.46926 16.41419 11403 ft 373 kts 91°
2026-04-17 12:58 48.46765 16.45260 11150 ft 361 kts 92°
2026-04-17 12:58 48.46534 16.48974 10906 ft 352 kts 99°
2026-04-17 12:58 48.45733 16.52393 10741 ft 342 kts 117°
2026-04-17 12:59 48.44376 16.55258 10591 ft 332 kts 133°
2026-04-17 12:59 48.42614 16.57396 10448 ft 321 kts 150°
2026-04-17 12:59 48.40609 16.58714 10306 ft 310 kts 165°
2026-04-17 12:59 48.38557 16.59575 10137 ft 304 kts 165°
2026-04-17 13:00 48.36528 16.60425 9949 ft 302 kts 165°
2026-04-17 13:00 48.34506 16.61274 9686 ft 301 kts 165°
2026-04-17 13:00 48.32495 16.62123 9420 ft 299 kts 165°
2026-04-17 13:00 48.30493 16.62971 9156 ft 298 kts 165°
2026-04-17 13:01 48.28494 16.63816 8894 ft 298 kts 165°
2026-04-17 13:01 48.26522 16.64644 8637 ft 296 kts 165°
2026-04-17 13:01 48.24537 16.65474 8380 ft 296 kts 165°
2026-04-17 13:01 48.22557 16.66301 8131 ft 295 kts 165°
2026-04-17 13:02 48.20587 16.67127 7877 ft 294 kts 165°
2026-04-17 13:02 48.18620 16.67953 7623 ft 293 kts 165°
2026-04-17 13:02 48.16659 16.68776 7371 ft 292 kts 165°
2026-04-17 13:02 48.14713 16.69591 7125 ft 288 kts 165°
2026-04-17 13:03 48.12807 16.70388 6867 ft 281 kts 165°
2026-04-17 13:03 48.10944 16.71162 6635 ft 275 kts 165°
2026-04-17 13:03 48.09123 16.71918 6373 ft 268 kts 165°
2026-04-17 13:03 48.07342 16.72659 6117 ft 263 kts 165°
2026-04-17 13:04 48.05591 16.73386 5857 ft 259 kts 165°
2026-04-17 13:04 48.03876 16.74096 5609 ft 254 kts 165°
2026-04-17 13:04 48.02180 16.74801 5352 ft 252 kts 165°
2026-04-17 13:04 48.00521 16.75491 5094 ft 249 kts 164°
2026-04-17 13:05 47.98859 16.76186 4845 ft 247 kts 164°
2026-04-17 13:05 47.97217 16.76870 4578 ft 243 kts 164°
2026-04-17 13:05 47.95598 16.77540 4330 ft 240 kts 164°
2026-04-17 13:05 47.93986 16.78192 4083 ft 240 kts 165°
2026-04-17 13:06 47.92357 16.78552 3818 ft 236 kts 188°
2026-04-17 13:06 47.90868 16.77683 3599 ft 230 kts 221°
2026-04-17 13:06 47.89940 16.75795 3419 ft 227 kts 250°
2026-04-17 13:06 47.89440 16.73586 3250 ft 225 kts 264°
2026-04-17 13:07 47.89561 16.71337 3132 ft 216 kts 296°
2026-04-17 13:07 47.90394 16.69492 3033 ft 216 kts 313°
2026-04-17 13:07 47.91400 16.67832 3007 ft 215 kts 316°
2026-04-17 13:07 47.92471 16.66291 2991 ft 213 kts 329°
2026-04-17 13:08 47.93811 16.65463 2996 ft 203 kts 346°
2026-04-17 13:08 47.95124 16.64916 3000 ft 190 kts 345°
2026-04-17 13:08 47.96349 16.64405 3045 ft 174 kts 345°
2026-04-17 13:08 47.97484 16.63928 2901 ft 165 kts 345°
2026-04-17 13:09 47.98583 16.63466 2723 ft 164 kts 345°
2026-04-17 13:09 47.99692 16.63000 2497 ft 165 kts 346°
2026-04-17 13:09 48.00792 16.62538 2281 ft 162 kts 345°
2026-04-17 13:09 48.01869 16.62084 2079 ft 161 kts 345°
2026-04-17 13:10 48.02929 16.61638 1860 ft 154 kts 343°
2026-04-17 13:10 48.03914 16.61222 1666 ft 143 kts 346°
2026-04-17 13:10 48.04839 16.60832 1471 ft 139 kts 345°
2026-04-17 13:10 48.05772 16.60438 1281 ft 136 kts 345°
2026-04-17 13:11 48.06685 16.60056 1081 ft 136 kts 345°
2026-04-17 13:11 48.07590 16.59671 917 ft 134 kts 344°
2026-04-17 13:11 48.08477 16.59290 726 ft 136 kts 345°
2026-04-17 13:11 48.09365 16.58924 616 ft 121 kts 343°
2026-04-17 13:12 48.10019 16.58653 616 ft 73 kts 343°
2026-04-17 13:12 48.10455 16.58276 609 ft 26 kts 300°
2026-04-17 13:12 48.10567 16.58133 617 ft 21 kts 347°
2026-04-17 13:13 48.10714 16.58073 616 ft 22 kts 343°
2026-04-17 13:13 48.10865 16.58009 609 ft 23 kts 344°
2026-04-17 13:13 48.10973 16.57904 616 ft 17 kts 314°
2026-04-17 13:13 48.11051 16.57758 615 ft 19 kts 296°
2026-04-17 13:14 48.11114 16.57602 612 ft 16 kts 330°
2026-04-17 13:14 48.11205 16.57571 609 ft 12 kts 302°
2026-04-17 13:14 48.11227 16.57503 610 ft 0 kts 294°
2026-04-17 13:14 48.11227 16.57500 610 ft 3 kts 294°
2026-04-17 13:15 48.11258 16.57405 616 ft 17 kts 296°
2026-04-17 13:15 48.11323 16.57209 622 ft 22 kts 297°
2026-04-17 13:15 48.11392 16.56994 618 ft 24 kts 296°
2026-04-17 13:15 48.11465 16.56875 617 ft 15 kts
2026-04-17 13:16 48.11567 16.56914 612 ft 12 kts 346°
2026-04-17 13:16 48.11614 16.56923 613 ft 11 kts 25°
2026-04-17 13:16 48.11659 16.56956 617 ft 0 kts 26°